Home   Weather   New Paris   Past weeks
Flag for USA

Past Weather in New Paris, Pennsylvania, USA — Yesterday and Last 2 Weeks

Now
52 °F

Sunny.


Feels Like: 51 °F
Forecast: 62 / 37 °F
Wind: 5 mph from Northeast

Location: Bedford County Airport
Current Time: Sep 19, 2020 at 12:14:28 pm
Latest Report: Sep 19, 2020 at 11:15 am
Visibility: 10 mi
Pressure30.40 "Hg
Humidity: 45%
Dew Point: 31 °F
Location of New ParisLocation

Past Weather in New Paris — Graph

°F

New Paris Temperature Yesterday

Maximum temperature yesterday: 67 °F (at 1:55 pm)
Minimum temperature yesterday: 47 °F (at 10:15 pm)
Average temperature yesterday: 58 °F

High & Low Weather Summary for the Past Weeks

 TemperatureHumidityPressure
High83 °F (Sep 8, 2:15 pm)98% (Sep 4, 11:35 pm)30.40 "Hg (Sep 4, 11:35 pm)
Low33 °F (Sep 19, 6:55 am)35% (Sep 5, 1:55 pm)29.97 "Hg (Sep 17, 5:15 pm)
Average62 °F79%30.18 "Hg
* Reported Sep 4 10:15 am — Sep 19 10:55 am, New Paris. Weather by CustomWeather, © 2020

Note: Actual official high and low records may vary slightly from our data, if they occured in-between our weather recording intervals... More about our weather records

New Paris Weather History for the Previous 24 Hours

Scroll right to see more
 ConditionsComfort  
Time TempWeatherWind HumidityBarometerVisibility
10:55 am
Sat, Sep 19
51 °FSunny.6 mph46%30.40 "Hg10 mi
10:35 am50 °FSunny.10 mph48%30.40 "Hg10 mi
10:15 am50 °FSunny.7 mph50%30.40 "Hg10 mi
9:55 am48 °FSunny.3 mph54%30.40 "Hg10 mi
9:15 am44 °FSunny.No wind71%30.39 "Hg10 mi
8:55 am42 °FSunny.No wind74%30.39 "Hg10 mi
7:55 am36 °FSunny.No wind95%30.38 "Hg10 mi
7:15 am33 °FSunny.No wind98%30.37 "Hg10 mi
6:55 am33 °FClear.No wind97%30.35 "Hg10 mi
6:15 am34 °FClear.No wind97%30.33 "Hg10 mi
5:55 am35 °FClear.No wind97%30.33 "Hg10 mi
5:15 am36 °FClear.No wind98%30.32 "Hg10 mi
4:55 am36 °FClear.No wind91%30.32 "Hg10 mi
4:15 am38 °FClear.No wind88%30.31 "Hg10 mi
3:55 am39 °FClear.No wind79%30.30 "Hg10 mi
3:15 am41 °FClear.No wind74%30.29 "Hg10 mi
2:55 am43 °FClear.5 mph67%30.29 "Hg10 mi
2:15 am44 °FClear.6 mph67%30.29 "Hg10 mi
1:55 am44 °FClear.7 mph67%30.29 "Hg10 mi
1:15 am47 °FClear.7 mph56%30.28 "Hg10 mi
12:55 am47 °FClear.8 mph56%30.28 "Hg10 mi
12:35 am48 °FClear.9 mph56%30.28 "Hg10 mi
12:15 am49 °FClear.8 mph55%30.27 "Hg10 mi
11:55 pm
Fri, Sep 18
50 °FClear.8 mph55%30.26 "Hg10 mi
11:15 pm50 °FPassing clouds.12 mph61%30.24 "Hg10 mi
10:55 pm49 °FPassing clouds.7 mph73%30.24 "Hg10 mi
10:15 pm47 °FClear.6 mph82%30.21 "Hg10 mi
9:55 pm48 °FClear.No wind83%30.20 "Hg10 mi
9:35 pm50 °FClear.5 mph76%30.20 "Hg10 mi
9:15 pm51 °FClear.7 mph72%30.19 "Hg10 mi
8:55 pm53 °FClear.6 mph68%30.19 "Hg10 mi
8:15 pm55 °FPassing clouds.5 mph61%30.17 "Hg10 mi
7:55 pm57 °FOvercast.5 mph57%30.15 "Hg10 mi
7:35 pm58 °FOvercast.6 mph55%30.14 "Hg10 mi
7:15 pm60 °FOvercast.7 mph52%30.14 "Hg10 mi
6:55 pm60 °FPartly sunny.10 mph51%30.13 "Hg10 mi
6:15 pm62 °FOvercast.13 mph46%30.11 "Hg10 mi
5:55 pm63 °FOvercast.13 mph43%30.10 "Hg10 mi
5:35 pm64 °FOvercast.13 mph43%30.09 "Hg10 mi
5:15 pm64 °FPartly sunny.12 mph45%30.08 "Hg10 mi
4:55 pm63 °FPartly sunny.12 mph44%30.08 "Hg10 mi
4:15 pm67 °FScattered clouds.20 mph41%30.07 "Hg10 mi
3:55 pm67 °FPartly sunny.14 mph40%30.07 "Hg10 mi
3:15 pm67 °FPartly sunny.15 mph42%30.07 "Hg10 mi
2:55 pm65 °FPartly sunny.14 mph44%30.07 "Hg10 mi
2:15 pm66 °FPartly sunny.13 mph45%30.06 "Hg10 mi
1:55 pm67 °FOvercast.16 mph47%30.07 "Hg10 mi
1:15 pm65 °FOvercast.8 mph49%30.07 "Hg10 mi
12:55 pm65 °FPartly sunny.14 mph48%30.08 "Hg10 mi
12:35 pm65 °FScattered clouds.12 mph48%30.08 "Hg10 mi
12:15 pm65 °FBroken clouds.15 mph50%30.08 "Hg10 mi
Weather by CustomWeather, © 2020

See weather overview